Roda de Ter - l'Esquerda





Hora UTC 22:35
Temperatura 15.4 ºC
Humitat 90.0 %
Pressió 1011.0 hPa
Pluja 0.0 mm
Velocitat vent 0.0 km/h
Direcció vent E

Dades diàries 2021-07-31



Hora UTC (hivern +1h; estiu +2h)
Temperatura (ºC) Humitat (%) Pressió (hPa) Velocitat vent (km/h) Precipitació (mm)
Hora UTC Aire Humitat Pressió Vel. Dir. Vel. Max Dir. Intent. màx 5 min.
00:05 19.9 87.0 1012.3 0.0 E 0.0 0.0
00:10 19.9 87.0 1012.3 0.0 E 1.6 0.0
00:10 19.9 87.0 1012.3 0.0 E 1.6 0.0
00:20 19.8 87.0 1012.2 0.0 E 0.0 0.0
00:25 19.8 87.0 1012.3 0.0 E 0.0 0.0
00:30 19.8 87.0 1012.1 0.0 E 0.0 0.0
00:35 19.7 88.0 1012.2 0.0 E 0.0 0.0
00:40 19.8 88.0 1012.1 0.0 E 0.0 0.0
00:45 19.8 88.0 1011.9 0.0 E 0.0 0.0
00:50 19.8 87.0 1011.9 1.6 E 1.6 0.0
00:55 19.8 88.0 1011.9 0.0 E 1.6 0.0
01:00 19.8 87.0 1011.9 1.6 E 3.2 0.0
01:05 19.8 87.0 1011.9 0.0 E 3.2 0.0
01:10 19.9 88.0 1011.8 0.0 E 1.6 0.0
01:15 19.9 87.0 1011.7 0.0 E 0.0 0.0
01:20 19.9 87.0 1011.8 0.0 E 1.6 0.0
01:25 19.9 87.0 1011.7 0.0 E 1.6 0.0
01:30 19.9 87.0 1011.7 0.0 E 0.0 0.0
01:35 20.0 87.0 1011.7 0.0 E 0.0 0.0
01:40 20.0 87.0 1011.7 1.6 E 3.2 0.0
01:45 20.0 87.0 1011.7 1.6 E 3.2 0.0
01:50 20.0 87.0 1011.5 0.0 E 3.2 0.0
01:55 20.0 86.0 1011.6 1.6 E 4.8 0.0
02:00 19.9 86.0 1011.5 0.0 E 4.8 0.0
02:05 19.9 85.0 1011.4 1.6 E 4.8 0.0
02:10 20.0 85.0 1011.2 0.0 E 3.2 0.0
02:15 20.1 85.0 1011.0 0.0 E 1.6 0.0
02:20 20.1 85.0 1011.0 0.0 E 1.6 0.0
02:25 20.1 85.0 1010.9 0.0 E 0.0 0.0
02:30 20.1 85.0 1010.9 0.0 E 1.6 0.0
02:35 20.0 85.0 1010.8 0.0 E 1.6 0.0
02:40 20.1 85.0 1010.9 0.0 E 0.0 0.0
02:45 20.2 85.0 1010.8 0.0 E 1.6 0.0
02:50 20.3 85.0 1010.8 0.0 E 1.6 0.0
02:55 20.2 85.0 1010.7 0.0 E 1.6 0.0
03:00 20.2 86.0 1010.7 0.0 E 1.6 0.0
03:05 20.2 86.0 1010.7 0.0 E 0.0 0.0
03:10 20.2 86.0 1010.7 0.0 E 0.0 0.0
03:15 20.2 86.0 1010.6 0.0 E 0.0 0.0
03:20 20.1 86.0 1010.6 0.0 E 0.0 0.0
03:25 20.1 86.0 1010.6 0.0 E 1.6 0.0
03:30 20.1 86.0 1010.7 1.6 E 1.6 0.0
03:35 20.1 86.0 1010.7 0.0 E 1.6 0.0
03:40 20.2 86.0 1010.8 1.6 E 3.2 0.0
03:45 20.2 87.0 1010.8 0.0 E 3.2 0.0
03:50 20.2 87.0 1010.7 0.0 E 3.2 0.0
03:55 20.1 87.0 1010.8 0.0 E 3.2 0.0
04:00 20.1 87.0 1010.8 1.6 E 3.2 0.0
04:05 20.1 87.0 1010.8 0.0 E 3.2 0.0
04:10 20.1 87.0 1010.8 1.6 E 1.6 0.0
04:15 20.1 87.0 1010.8 0.0 E 1.6 0.0
04:20 20.0 87.0 1010.7 1.6 E 1.6 0.0
04:25 20.1 87.0 1010.7 0.0 E 3.2 0.0
04:30 20.1 87.0 1010.5 0.0 E 3.2 0.0
04:35 20.0 87.0 1010.5 0.0 E 1.6 0.0
04:40 20.0 87.0 1010.5 0.0 E 1.6 0.0
04:45 20.0 87.0 1010.5 0.0 E 1.6 0.0
04:50 20.0 87.0 1010.5 0.0 E 0.0 0.0
04:55 20.0 87.0 1010.5 0.0 E 0.0 0.0
05:00 19.9 87.0 1010.6 0.0 E 0.0 0.0
05:05 19.8 87.0 1010.5 0.0 E 0.0 0.0
05:10 19.8 88.0 1010.5 0.0 E 1.6 0.0
05:15 19.8 88.0 1010.5 0.0 E 1.6 0.0
05:20 19.8 88.0 1010.4 0.0 E 1.6 0.0
05:25 19.7 88.0 1010.4 1.6 E 3.2 0.0
05:30 19.7 88.0 1010.5 0.0 E 3.2 0.0
05:35 19.6 88.0 1010.5 0.0 E 3.2 0.0
05:40 19.7 88.0 1010.5 0.0 E 1.6 0.0
05:45 19.7 89.0 1010.5 0.0 E 1.6 0.0
05:50 19.8 88.0 1010.6 0.0 E 1.6 0.0
05:55 19.9 88.0 1010.7 0.0 E 1.6 0.0
06:00 20.1 88.0 1010.7 0.0 E 0.0 0.0
06:05 20.3 88.0 1010.6 0.0 E 1.6 0.0
06:10 20.4 87.0 1010.7 0.0 E 1.6 0.0
06:15 20.5 87.0 1010.6 0.0 E 1.6 0.0
06:20 20.6 86.0 1010.7 0.0 E 1.6 0.0
06:25 20.7 86.0 1010.7 0.0 E 1.6 0.0
06:30 20.8 86.0 1010.7 0.0 E 0.0 0.0
06:35 20.9 86.0 1010.6 0.0 E 1.6 0.0
06:40 21.0 85.0 1010.7 3.2 SE 3.2 0.0
06:45 21.1 84.0 1010.6 0.0 SE 3.2 0.0
06:50 21.3 84.0 1010.7 1.6 SE 3.2 0.0
06:55 21.6 83.0 1010.5 1.6 N 4.8 0.0
07:00 22.1 81.0 1010.6 1.6 N 3.2 0.0
07:05 22.6 79.0 1010.6 1.6 N 4.8 0.0
07:10 22.8 77.0 1010.7 1.6 N 4.8 0.0
07:15 22.7 77.0 1010.8 1.6 N 3.2 0.0
07:20 22.4 77.0 1010.8 0.0 N 3.2 0.0
07:25 22.6 77.0 1010.7 0.0 N 3.2 0.0
07:30 22.8 76.0 1010.8 0.0 N 4.8 0.0
07:35 22.6 77.0 1010.9 1.6 N 4.8 0.0
07:40 22.7 77.0 1010.9 1.6 N 4.8 0.0
07:45 22.8 77.0 1010.9 0.0 N 3.2 0.0
07:50 22.8 77.0 1010.8 1.6 N 3.2 0.0
07:55 22.9 76.0 1010.8 3.2 N 4.8 0.0
08:00 23.1 77.0 1010.8 1.6 N 6.4 0.0
08:05 23.2 77.0 1010.7 0.0 N 6.4 0.0
08:10 23.7 74.0 1010.9 0.0 N 3.2 0.0
08:15 23.4 75.0 1010.8 1.6 N 4.8 0.0
08:20 23.5 73.0 1010.8 1.6 N 4.8 0.0
08:25 23.7 73.0 1010.7 0.0 N 4.8 0.0
08:30 23.9 73.0 1010.7 3.2 N 4.8 0.0
08:35 24.4 69.0 1010.7 3.2 N 4.8 0.0
08:40 24.4 68.0 1010.6 3.2 N 6.4 0.0
08:45 24.3 66.0 1010.5 0.0 N 6.4 0.0
08:50 24.3 65.0 1010.5 1.6 N 6.4 0.0
08:55 24.3 65.0 1010.6 1.6 N 6.4 0.0
09:00 25.6 63.0 1010.6 3.2 N 6.4 0.0
09:05 26.4 60.0 1010.5 3.2 N 6.4 0.0
09:10 27.1 58.0 1010.5 3.2 NNE 8.0 0.0
09:10 27.1 58.0 1010.3 3.2 NE 8.0 0.0
09:20 27.2 57.0 1010.4 3.2 ESE 9.7 0.0
09:25 28.0 56.0 1010.2 3.2 ENE 8.0 0.0
09:30 27.6 57.0 1010.2 6.4 NNE 8.0 0.0
09:35 27.7 58.0 1010.2 1.6 ENE 8.0 0.0
09:40 28.4 55.0 1010.1 4.8 NE 6.4 0.0
09:45 28.8 56.0 1010.0 1.6 SSE 6.4 0.0
09:50 29.3 53.0 1009.9 4.8 W 4.8 0.0
09:55 29.1 53.0 1010.0 3.2 SSW 6.4 0.0
10:00 28.5 54.0 1010.0 3.2 SE 8.0 0.0
10:05 28.3 55.0 1010.0 0.0 ESE 8.0 0.0
10:10 29.1 52.0 1009.9 1.6 ESE 11.3 0.0
10:15 28.4 54.0 1009.8 4.8 WSW 14.5 0.0
10:20 28.2 54.0 1009.7 4.8 SSW 14.5 0.0
10:25 28.1 54.0 1009.5 3.2 SW 9.7 0.0
10:30 28.6 53.0 1009.6 4.8 W 11.3 0.0
10:35 27.6 55.0 1009.6 0.0 WSW 11.3 0.0
10:40 27.2 55.0 1009.5 4.8 N 4.8 0.0
10:45 27.4 56.0 1009.5 6.4 N 9.7 0.0
10:50 27.3 56.0 1009.5 6.4 N 14.5 0.0
10:55 28.6 54.0 1009.3 4.8 N 14.5 0.0
11:00 29.2 51.0 1009.3 8.0 N 14.5 0.0
11:05 29.1 50.0 1009.2 4.8 N 14.5 0.0
11:10 28.1 52.0 1009.2 1.6 N 12.9 0.0
11:15 28.5 52.0 1009.2 3.2 N 6.4 0.0
11:20 30.8 47.0 1009.0 8.0 N 9.7 0.0
11:25 30.0 48.0 1009.0 3.2 N 14.5 0.0
11:30 28.9 49.0 1008.9 1.6 N 9.7 0.0
11:35 28.8 49.0 1009.0 1.6 N 6.4 0.0
11:40 28.8 50.0 1008.9 6.4 N 6.4 0.0
11:45 30.7 46.0 1008.7 8.0 N 16.1 0.0
11:50 30.4 44.0 1008.6 3.2 N 16.1 0.0
11:55 29.4 47.0 1008.5 0.0 N 6.4 0.0
12:00 29.4 49.0 1008.6 3.2 N 6.4 0.0
12:05 28.8 52.0 1008.5 3.2 N 6.4 0.0
12:10 29.0 52.0 1008.5 3.2 N 9.7 0.0
12:15 28.4 53.0 1008.7 0.0 ESE 9.7 0.0
12:20 27.7 55.0 1008.6 1.6 E 6.4 0.0
12:25 27.1 55.0 1008.6 3.2 E 6.4 0.0
12:30 26.8 56.0 1008.5 0.0 N 11.3 0.0
12:35 26.7 56.0 1008.5 1.6 N 11.3 0.0
12:40 26.4 56.0 1008.5 0.0 N 3.2 0.0
12:45 26.3 56.0 1008.4 6.4 N 8.0 0.0
12:50 26.1 56.0 1008.4 9.7 N 17.7 0.0
12:55 26.1 56.0 1008.3 8.0 N 19.3 0.0
13:00 26.4 56.0 1008.3 4.8 N 17.7 0.0
13:05 26.8 55.0 1008.4 3.2 N 14.5 0.0
13:10 27.0 54.0 1008.3 8.0 N 17.7 0.0
13:15 27.1 54.0 1008.3 8.0 N 19.3 0.0
13:20 28.2 52.0 1008.3 14.5 N 19.3 0.0
13:25 28.8 51.0 1008.3 8.0 N 19.3 0.0
13:30 29.8 49.0 1008.4 9.7 N 20.9 0.0
13:35 30.2 47.0 1008.2 14.5 N 22.5 0.0
13:40 30.2 47.0 1008.2 12.9 N 22.5 0.0
13:40 30.1 47.0 1008.2 17.7 N 25.7 0.0
13:50 30.3 46.0 1008.0 16.1 N 25.7 0.0
13:55 30.1 47.0 1008.0 8.0 N 24.1 0.0
14:00 30.9 46.0 1007.9 20.9 N 27.4 0.0
14:05 30.3 46.0 1008.0 8.0 N 27.4 0.0
14:10 29.8 47.0 1008.1 17.7 N 27.4 0.0
14:15 29.6 48.0 1008.1 16.1 N 24.1 0.0
14:20 28.4 49.0 1008.1 19.3 N 24.1 0.0
14:25 28.2 51.0 1008.0 14.5 N 24.1 0.0
14:30 28.9 49.0 1008.0 19.3 N 27.4 0.0
14:35 28.9 48.0 1008.0 8.0 N 27.4 0.0
14:40 28.2 49.0 1008.1 12.9 N 25.7 0.0
14:45 28.6 49.0 1007.8 17.7 N 25.7 0.0
14:50 28.8 48.0 1007.8 9.7 N 25.7 0.0
14:55 28.4 48.0 1007.8 6.4 N 20.9 0.0
15:00 28.0 49.0 1007.9 9.7 N 27.4 0.0
15:05 27.8 50.0 1007.8 8.0 N 27.4 0.0
15:10 27.7 50.0 1007.9 12.9 S 20.9 0.0
15:15 27.1 52.0 1008.0 8.0 S 27.4 0.0
15:20 26.7 53.0 1007.9 3.2 N 27.4 0.0
15:25 26.6 54.0 1008.0 12.9 N 27.4 0.0
15:30 26.2 54.0 1008.1 22.5 N 29.0 0.0
15:35 25.9 55.0 1008.1 12.9 N 29.0 0.0
15:40 25.7 55.0 1008.0 8.0 N 20.9 0.0
15:45 25.4 56.0 1008.3 14.5 N 22.5 0.0
15:50 25.2 57.0 1008.2 9.7 N 22.5 0.0
15:55 24.9 57.0 1008.1 12.9 N 27.4 0.0
16:00 24.8 58.0 1008.3 16.1 N 27.4 0.0
16:05 24.6 58.0 1008.1 9.7 N 22.5 0.0
16:10 24.5 58.0 1007.8 6.4 N 22.5 0.0
16:15 24.4 59.0 1007.8 4.8 N 22.5 0.0
16:20 24.3 59.0 1007.3 17.7 N 22.5 0.0
16:25 24.2 60.0 1007.2 8.0 N 19.3 0.0
16:30 24.2 60.0 1007.9 3.2 N 16.1 0.0
16:35 24.1 61.0 1007.7 8.0 N 14.5 0.0
16:40 24.0 61.0 1007.9 0.0 N 8.0 0.0
16:45 24.0 62.0 1007.9 6.4 N 8.0 0.0
16:50 23.8 63.0 1008.3 6.4 N 16.1 0.0
16:55 23.8 63.0 1008.5 20.9 N 20.9 0.0
17:00 23.7 63.0 1008.6 9.7 N 25.7 0.0
17:05 23.7 63.0 1008.5 4.8 N 25.7 0.0
17:10 23.6 63.0 1008.3 3.2 N 16.1 0.0
17:15 23.6 64.0 1008.3 1.6 N 17.7 0.0
17:20 23.6 64.0 1008.2 6.4 N 17.7 0.0
17:25 23.4 64.0 1008.2 4.8 N 16.1 0.0
17:30 23.3 64.0 1008.2 8.0 N 16.1 0.0
17:35 23.4 64.0 1008.3 6.4 N 12.9 0.0
17:40 23.7 63.0 1008.2 6.4 N 12.9 0.0
17:45 23.8 63.0 1008.1 3.2 N 9.7 0.0
17:50 23.7 63.0 1008.1 3.2 N 8.0 0.0
17:55 23.7 63.0 1008.0 1.6 N 8.0 0.0
18:00 23.3 64.0 1008.1 1.6 N 9.7 0.0
18:05 23.2 64.0 1008.0 3.2 N 9.7 0.0
18:10 22.9 65.0 1007.5 8.0 N 9.7 0.0
18:15 22.7 66.0 1007.3 3.2 N 8.0 0.0
18:20 22.4 66.0 1007.3 4.8 N 12.9 0.0
18:25 22.2 67.0 1007.3 3.2 N 8.0 0.0
18:30 22.1 67.0 1007.3 8.0 N 12.9 0.0
18:35 21.8 67.0 1007.2 8.0 N 12.9 0.0
18:40 21.8 68.0 1007.2 4.8 N 12.9 0.0
18:45 21.7 68.0 1007.5 1.6 N 12.9 0.0
18:50 21.6 68.0 1007.8 4.8 N 8.0 0.0
18:50 21.5 68.0 1007.7 4.8 N 14.5 0.0
19:00 21.4 68.0 1007.5 1.6 N 17.7 0.0
19:05 21.3 68.0 1007.5 3.2 N 17.7 0.0
19:10 21.2 68.0 1007.7 3.2 N 14.5 0.0
19:15 21.1 68.0 1007.9 3.2 N 14.5 0.0
19:20 21.1 69.0 1008.4 4.8 N 12.9 0.0
19:20 21.1 69.0 1008.8 0.0 N 9.7 0.0
19:30 21.1 69.0 1008.9 0.0 N 9.7 0.0
19:35 21.1 69.0 1008.7 3.2 N 8.0 0.0
19:40 21.0 69.0 1008.5 9.7 E 14.5 0.0
19:45 21.1 69.0 1008.6 8.0 SE 14.5 0.0
19:50 21.1 69.0 1008.8 8.0 S 17.7 0.0
19:55 20.7 70.0 1009.1 0.0 SW 17.7 0.0
20:00 20.2 72.0 1009.7 4.8 SSW 14.5 0.0
20:05 19.8 74.0 1010.0 1.6 SW 14.5 0.0
20:10 19.5 76.0 1010.1 11.3 W 17.7 0.0
20:15 19.2 77.0 1010.4 4.8 W 17.7 0.0
20:20 18.6 79.0 1010.4 24.1 WSW 30.6 0.6
20:25 17.9 79.0 1010.5 12.9 W 32.2 0.4
20:30 17.3 81.0 1010.8 6.4 WSW 32.2 0.2
20:35 16.9 82.0 1011.1 8.0 SW 30.6 0.2
20:40 16.6 83.0 1011.6 11.3 S 17.7 0.2
20:45 16.4 84.0 1011.6 11.3 S 16.1 0.2
20:50 16.4 85.0 1011.6 16.1 S 17.7 0.2
20:55 16.5 86.0 1011.5 4.8 SE 19.3 0.4
21:00 16.5 86.0 1011.3 1.6 S 14.5 0.2
21:05 16.5 87.0 1011.1 3.2 ESE 14.5 0.2
21:10 16.5 87.0 1011.1 1.6 ESE 6.4 0.2
21:15 16.5 88.0 1011.1 1.6 ESE 4.8 0.2
21:20 16.5 88.0 1011.1 0.0 ESE 4.8 0.2
21:25 16.5 88.0 1011.1 1.6 ESE 4.8 0.4
21:30 16.4 89.0 1011.0 0.0 ESE 4.8 0.2
21:35 16.4 89.0 1010.8 0.0 ESE 4.8 0.2
21:40 16.3 89.0 1010.8 1.6 ESE 4.8 0.2
21:45 16.1 89.0 1010.9 3.2 ESE 4.8 0.2
21:50 16.1 89.0 1010.9 1.6 ESE 3.2 0.0
21:55 16.0 89.0 1010.8 3.2 E 6.4 0.0
22:00 15.9 90.0 1010.8 0.0 E 6.4 0.0
22:05 15.9 90.0 1010.8 0.0 E 3.2 0.0
22:10 15.8 90.0 1010.9 0.0 E 3.2 0.0
22:15 15.7 90.0 1010.8 3.2 E 4.8 0.0
22:20 15.6 90.0 1010.7 3.2 E 6.4 0.0
22:25 15.5 90.0 1010.9 0.0 E 6.4 0.0
22:30 15.4 90.0 1011.0 0.0 E 3.2 0.0
22:35 15.4 90.0 1011.0 0.0 E 1.6 0.0
Màxima 30.9 90.0 1012.3 24.1 WSW 32.2 0.6
Mínima 15.4 44.0 1007.2
Total 4.6